N1LTP Weather Reports


time (UTC)temp
F
wind
direction
speed
knots
gust
knots
rain 1hr
in
rain 24hr
in
rain mn
in
humidity
%
barometer
mb
20260906134542 61 277 0.0 4.3 0.00 0.04 0.04 88 1014.7
20260906133039 60 289 0.0 3.5 0.00 0.04 0.04 89 1014.6
20260906131538 60 312 0.0 3.5 0.00 0.04 0.04 90 1014.7
20260906130041 60 289 1.7 3.5 0.01 0.04 0.04 90 1014.5
20260906124538 60 311 2.6 7.0 0.01 0.04 0.04 90 1014.5
20260906123034 60 306 0.0 2.6 0.01 0.04 0.04 90 1014.5
20260906121533 59 307 1.7 3.5 0.01 0.04 0.04 90 1014.4
20260906120030 59 312 0.0 2.6 0.00 0.03 0.03 90 1014.2
20260906114530 59 350 0.0 1.7 0.00 0.03 0.03 90 1014.1
20260906113028 59 34 0.0 1.7 0.01 0.03 0.03 90 1014.0
20260906111526 59 110 0.0 0.0 0.02 0.03 0.03 89 1013.8
20260906110023 59 110 0.0 0.0 0.02 0.03 0.03 89 1013.5
20260906104524 59 110 0.0 0.0 0.03 0.03 0.03 89 1013.3
20260906103021 59 110 0.0 0.0 0.02 0.02 0.02 88 1013.3
20260906101519 59 110 0.0 0.9 0.01 0.01 0.01 88 1013.3
20260906100018 59 110 0.0 5.2 0.01 0.01 0.01 87 1013.2
20260906094517 60 58 0.0 2.6 0.00 0.00 0.00 87 1013.2
20260906093027 60 84 0.0 2.6 0.00 0.00 0.00 89 1012.8
20260906091509 61 56 0.0 0.9 0.00 0.00 0.00 90 1012.5
20260906090010 61 56 0.0 0.9 0.00 0.00 0.00 90 1012.3
20260906084513 61 56 0.0 0.9 0.00 0.00 0.00 90 1012.4
20260906083007 61 56 0.0 0.0 0.00 0.00 0.00 90 1012.1
20260906081507 61 56 0.0 0.9 0.00 0.00 0.00 90 1012.0
20260906080007 61 56 0.0 0.0 0.00 0.00 0.00 90 1012.0
20260906074506 60 56 0.0 0.9 0.00 0.00 0.00 90 1011.8
20260906073005 60 56 0.0 1.7 0.00 0.00 0.00 90 1011.8
20260906071504 60 56 0.0 0.9 0.00 0.00 0.00 89 1011.9
20260906070003 60 56 0.0 0.9 0.00 0.00 0.00 89 1012.0
20260906064503 60 56 0.0 0.0 0.00 0.00 0.00 89 1011.9
20260906063002 60 56 0.0 0.0 0.00 0.00 0.00 88 1011.9
20260906061501 60 56 0.0 0.0 0.00 0.00 0.00 88 1012.0
20260906060104 61 56 0.0 0.0 0.00 0.00 0.00 87 1012.0
20260906054558 61 56 0.0 0.9 0.00 0.00 0.00 87 1012.0
20260906053057 61 56 0.0 0.0 0.00 0.00 0.00 87 1012.2
20260906051558 61 56 0.0 0.0 0.00 0.00 0.00 86 1012.3
20260906050055 61 56 0.0 0.0 0.00 0.00 0.00 86 1012.3
20260906044553 61 56 0.0 0.0 0.00 0.00 0.00 85 1012.2
20260906043054 61 56 0.0 0.0 0.00 0.00 0.00 85 1012.1
20260906041551 62 56 0.0 0.0 0.00 0.00 0.00 85 1012.1
20260906040051 62 56 0.0 0.0 0.00 0.00 0.00 85 1012.1
20260906034549 62 56 0.0 0.0 0.00 0.00 0.00 85 1012.0
20260906033049 62 56 0.0 0.0 0.00 0.00 0.00 85 1011.9
20260906031549 62 56 0.0 0.0 0.00 0.00 0.00 84 1011.8
20260906030051 62 56 0.0 0.0 0.00 0.00 0.00 84 1011.9
20260906024548 62 56 0.0 0.0 0.00 0.00 0.00 84 1011.9
20260906023048 63 56 0.0 0.0 0.00 0.00 0.00 83 1011.8
20260906021553 63 56 0.0 0.0 0.00 0.00 0.00 83 1011.9
20260906020045 63 56 0.0 0.0 0.00 0.00 0.00 83 1011.9
20260906014548 63 56 0.0 0.0 0.00 0.00 0.00 83 1011.9
20260906013045 63 56 0.0 0.0 0.00 0.00 0.00 83 1012.0
20260906011551 63 56 0.0 1.7 0.00 0.00 0.00 83 1011.9
20260906010043 64 59 0.0 0.9 0.00 0.00 0.00 83 1011.9
20260906004543 64 59 0.0 0.0 0.00 0.00 0.00 82 1011.7
20260906003040 64 59 0.0 0.0 0.00 0.00 0.00 82 1011.5
20260906001539 64 59 0.0 0.0 0.00 0.00 0.00 81 1011.4
20260906000040 64 59 0.0 0.0 0.00 0.00 0.00 81 1011.1
20260905234536 64 59 0.0 0.0 0.00 0.00 0.00 80 1011.1
20260905233053 65 59 0.0 2.6 0.00 0.00 0.00 80 1011.0
20260905231548 65 59 0.0 0.9 0.00 0.00 0.00 79 1011.1
20260905230034 65 59 0.0 1.7 0.00 0.00 0.00 79 1011.0
20260905224541 66 58 0.9 4.3 0.00 0.00 0.00 79 1011.1
20260905223033 66 76 0.0 5.2 0.00 0.00 0.00 78 1011.0
20260905221537 67 103 0.9 6.1 0.00 0.00 0.00 77 1010.9
20260905220030 67 57 0.9 8.7 0.00 0.00 0.00 77 1010.8
20260905214527 68 69 3.5 7.8 0.00 0.00 0.00 77 1010.4
20260905213033 68 96 2.6 7.0 0.00 0.00 0.00 77 1010.2
20260905211528 68 76 2.6 9.6 0.00 0.00 0.00 76 1010.1
20260905210028 69 80 4.3 8.7 0.00 0.00 0.00 75 1010.0
20260905204523 69 88 1.7 7.0 0.00 0.00 0.00 76 1010.0
20260905203020 69 94 1.7 7.8 0.00 0.00 0.00 74 1009.8
20260905201525 69 76 0.9 8.7 0.00 0.00 0.00 75 1009.6
20260905200018 70 116 1.7 9.6 0.00 0.00 0.00 74 1009.6
20260905194517 69 77 0.9 6.1 0.00 0.00 0.00 75 1009.5
20260905193017 69 281 0.0 7.0 0.00 0.00 0.00 76 1009.4
20260905191516 70 121 1.7 7.0 0.00 0.00 0.00 75 1009.5
20260905190015 71 108 1.7 6.1 0.00 0.00 0.00 75 1009.4
20260905184520 71 94 1.7 5.2 0.00 0.00 0.00 75 1009.4
20260905183014 71 98 1.7 5.2 0.00 0.00 0.00 75 1009.6
20260905181513 70 94 1.7 7.0 0.00 0.00 0.00 75 1009.7
20260905180012 70 98 0.9 10.4 0.00 0.00 0.00 76 1009.4
20260905174514 69 103 2.6 7.0 0.00 0.00 0.00 76 1009.4
20260905173023 69 89 1.7 4.3 0.00 0.00 0.00 76 1009.3
20260905171511 69 101 2.6 7.0 0.00 0.00 0.00 75 1009.3
20260905170007 70 152 1.7 6.1 0.00 0.00 0.00 74 1009.2
20260905164506 70 63 3.5 11.3 0.00 0.00 0.00 74 1009.2
20260905163004 70 95 2.6 9.6 0.00 0.00 0.00 75 1008.9
20260905161503 70 91 1.7 8.7 0.00 0.00 0.00 75 1008.9
20260905160003 71 113 3.5 7.0 0.00 0.00 0.00 73 1008.9
20260905154502 72 91 1.7 5.2 0.00 0.00 0.00 73 1008.9
20260905153002 72 110 1.7 7.0 0.00 0.00 0.00 72 1008.8
20260905151600 73 39 0.9 8.7 0.00 0.00 0.00 72 1008.6
20260905150056 71 155 0.9 7.8 0.00 0.00 0.00 74 1008.7
20260905144555 70 138 1.7 5.2 0.00 0.00 0.00 74 1008.7
20260905143054 70 296 2.6 5.2 0.00 0.00 0.00 75 1008.7
20260905141601 70 75 1.7 7.8 0.00 0.00 0.00 77 1008.6
20260905140050 69 209 0.0 3.5 0.00 0.00 0.00 78 1008.5